Location: Dittelbrunn
(50.0738°N, 10.2196°E)
Time: 13:07:16
(UTC+00:00)

CZ-2C R/B - Pass Details

Date: 18 September 2020
Orbit: 785 x 870 km, 98.2° (Epoch: 25 October)

Event Time Altitude Azimuth Distance (km) Brightness Sun altitude
Rises 19:15:39 0° 14° (NNE) 3,407 6.0 -17.9°
Reaches altitude 10° 19:18:01 10° 14° (NNE) 2,480 5.3 -18.3°
Maximum altitude 19:23:33 90° 74° (ENE) 865 2.7 -19.1°
Drops below altitude 10° 19:29:09 10° 196° (SSW) 2,503 5.0 -19.9°
Sets 19:31:32 0° 197° (SSW) 3,441 5.8 -20.2°
